Laredo, TX

4:15 AM CDT on June 26, 2017 (GMT -0500)
Laredo International

Weather History for KLRD - September, 2012

Change the Weather History Date:

Tuesday, September 4, 2012

  Actual Average Record
Temperature  
Mean Temperature 93 °F 86 °F  
Max Temperature 106 °F 97 °F 107 °F (2000)
Min Temperature 80 °F 75 °F 64 °F (1974)
Degree Days  
Heating Degree Days 0 0  
Month to date heating degree days 0 0  
Since 1 July heating degree days 0 0  
Cooling Degree Days 28 21  
Month to date cooling degree days 107 85  
Year to date cooling degree days 3935 3328  
Growing Degree Days 42 (Base 50)    
Moisture  
Dew Point 66 °F    
Average Humidity 48    
Maximum Humidity 77    
Minimum Humidity 19    
Precipitation  
Precipitation 0.00 in 0.11 in 2.49 in (1953)
Month to date precipitation 0.00 0.44  
Year to date precipitation 5.90 13.43  
Sea Level Pressure  
Sea Level Pressure 29.86 in    
Wind  
Wind Speed 13 mph (SSE)    
Max Wind Speed 23 mph    
Max Gust Speed 27 mph    
Visibility 10 miles    
Events      
T = Trace of Precipitation, MM = Missing Value Source: NWS Daily Summary

Daily Weather History Graph

Daily Weather History Graph

Search for Another Location

Airport or City:

Trip Planner

Search our weather history database for the weather conditions in past years. The results will help you decide how hot, cold, wet, or windy it might be!

Date:

Astronomy

Sep. 04, 2012 Rise Set
Actual Time 7:18 AM CDT 7:54 PM CDT
Civil Twilight 6:54 AM CDT 8:18 PM CDT
Nautical Twilight 6:27 AM CDT 8:45 PM CDT
Astronomical Twilight 5:58 AM CDT 9:13 PM CDT
Moon 10:18 PM CDT (9/4) 10:58 AM CDT (9/4)
Length of Visible Light 13h 23m
Length of Day
12h 36m
Waning Gibbous, 83% of the Moon is Illuminated
Sep 4
Waning Gibbous
Sep 8
Last Quarter
Sep 15
New
Sep 22
First Quarter
Sep 29
Full

Hourly Weather History & Observations

Time (CDT) Temp. Heat Index Dew Point Humidity Pressure Visibility Wind Dir Wind Speed Gust Speed Precip Events Conditions
12:56 AM 84.9 °F 89.4 °F 70.0 °F 61% 29.91 in 10.0 mi SSE 17.3 mph - N/A   Clear
1:56 AM 83.8 °F 88.6 °F 70.9 °F 65% 29.90 in 10.0 mi SSE 19.6 mph - N/A   Clear
2:56 AM 82.9 °F 88.0 °F 72.0 °F 69% 29.90 in 10.0 mi SSE 13.8 mph - N/A   Clear
3:56 AM 81.9 °F 86.6 °F 72.0 °F 72% 29.88 in 10.0 mi SSE 13.8 mph - N/A   Clear
4:56 AM 81.0 °F 85.2 °F 72.0 °F 74% 29.88 in 10.0 mi SSE 12.7 mph - N/A   Clear
5:56 AM 81.0 °F 85.2 °F 72.0 °F 74% 29.88 in 10.0 mi SSE 12.7 mph - N/A   Clear
6:56 AM 79.9 °F - 72.0 °F 77% 29.91 in 10.0 mi SSE 10.4 mph - N/A   Clear
7:56 AM 79.9 °F - 72.0 °F 77% 29.92 in 10.0 mi SSE 8.1 mph - N/A   Clear
8:56 AM 82.9 °F 87.5 °F 70.9 °F 67% 29.93 in 10.0 mi South 13.8 mph - N/A   Clear
9:56 AM 86.0 °F 91.1 °F 70.9 °F 60% 29.94 in 10.0 mi SSE 11.5 mph - N/A   Clear
10:56 AM 90.9 °F 96.2 °F 70.0 °F 50% 29.94 in 10.0 mi SSE 11.5 mph - N/A   Clear
11:56 AM 93.9 °F 98.6 °F 68.0 °F 43% 29.92 in 10.0 mi SSE 8.1 mph - N/A   Clear
12:56 PM 97.9 °F 100.9 °F 64.9 °F 34% 29.89 in 10.0 mi South 8.1 mph 18.4 mph N/A   Clear
1:56 PM 100.9 °F 104.0 °F 63.9 °F 30% 29.86 in 10.0 mi SE 11.5 mph - N/A   Clear
2:56 PM 102.9 °F 103.6 °F 59.9 °F 24% 29.84 in 10.0 mi South 9.2 mph 17.3 mph N/A   Clear
3:56 PM 104.0 °F 104.0 °F 57.9 °F 22% 29.80 in 10.0 mi ESE 9.2 mph - N/A   Clear
4:56 PM 104.9 °F 104.2 °F 55.9 °F 20% 29.78 in 10.0 mi ESE 13.8 mph - N/A   Clear
5:56 PM 104.9 °F 103.6 °F 54.9 °F 19% 29.77 in 10.0 mi SSE 16.1 mph 29.9 mph N/A   Clear
6:56 PM 102.9 °F 101.4 °F 54.9 °F 20% 29.77 in 10.0 mi SSE 17.3 mph 23.0 mph N/A   Clear
7:56 PM 99.9 °F 99.4 °F 57.9 °F 25% 29.79 in 10.0 mi SE 13.8 mph - N/A   Clear
8:56 PM 97.0 °F 97.8 °F 61.9 °F 31% 29.79 in 10.0 mi SE 15.0 mph - N/A   Clear
9:56 PM 93.9 °F 96.1 °F 64.9 °F 38% 29.82 in 10.0 mi SE 12.7 mph 24.2 mph N/A   Clear
10:56 PM 90.0 °F 92.8 °F 66.9 °F 46% 29.84 in 10.0 mi SSE 17.3 mph - N/A   Clear
11:56 PM 86.9 °F 89.6 °F 66.9 °F 51% 29.86 in 10.0 mi SSE 17.3 mph 26.5 mph N/A   Clear